• In Hungary
  • List of Countries
  • For 7 days
  • Water Temperature
  • Satellite Maps
  • Weather Map
  • News
  • Weather Widgets
  • user-avatar
    Login

    Hourly Weather Sidi Bu-l-Abbas

    Today, 22 January, Monday

    Time Temperature Precipitation Wind Pressure Humidity
    00:00 +10°C° 0 mm 2 mps 727 mmHg 58%
    01:00 +10°C° 0 mm 2 mps 727 mmHg 57%
    02:00 +9°C° 0 mm 2 mps 727 mmHg 57%
    03:00 +9°C° 0 mm 2 mps 727 mmHg 57%
    04:00 +9°C° 0 mm 2 mps 727 mmHg 58%
    05:00 +10°C° 0 mm 1 mps 727 mmHg 58%
    06:00 +10°C° 0 mm 1 mps 727 mmHg 59%
    07:00 +11°C° 0 mm 1 mps 727 mmHg 55%
    08:00 +13°C° 0 mm 1 mps 727 mmHg 50%
    09:00 +15°C° 0 mm 1 mps 728 mmHg 45%
    10:00 +16°C° 0 mm 1 mps 728 mmHg 42%
    11:00 +18°C° 0 mm 1 mps 728 mmHg 40%
    12:00 +19°C° 0 mm 1 mps 728 mmHg 37%
    13:00 +19°C° 0 mm 2 mps 728 mmHg 37%
    14:00 +19°C° 0 mm 2 mps 727 mmHg 37%
    15:00 +19°C° 0 mm 2 mps 727 mmHg 37%
    16:00 +18°C° 0 mm 1 mps 727 mmHg 44%
    17:00 +15°C° 0 mm 1 mps 726 mmHg 52%
    18:00 +14°C° 0 mm 1 mps 726 mmHg 59%
    19:00 +13°C° 0 mm 1 mps 726 mmHg 60%
    20:00 +13°C° 0 mm 1 mps 726 mmHg 61%
    21:00 +11°C° 0 mm 0 mps 726 mmHg 62%
    22:00 +11°C° 0 mm 0 mps 726 mmHg 63%
    23:00 +11°C° 0 mm 0 mps 726 mmHg 63%

    Tomorrow, 23 January, Tuesday

    Time Temperature Precipitation Wind Pressure Humidity
    00:00 +10°C° 0 mm 0 mps 726 mmHg 63%
    01:00 +10°C° 0 mm 0 mps 726 mmHg 65%
    02:00 +10°C° 0 mm 0 mps 726 mmHg 66%
    03:00 +9°C° 0 mm 0 mps 726 mmHg 68%
    04:00 +9°C° 0 mm 0 mps 726 mmHg 69%
    05:00 +9°C° 0 mm 0 mps 726 mmHg 70%
    06:00 +9°C° 0 mm 0 mps 726 mmHg 72%
    07:00 +11°C° 0 mm 0 mps 726 mmHg 63%
    08:00 +14°C° 0 mm 1 mps 727 mmHg 55%
    09:00 +16°C° 0 mm 1 mps 727 mmHg 46%
    10:00 +18°C° 0 mm 1 mps 727 mmHg 43%
    11:00 +19°C° 0 mm 1 mps 727 mmHg 39%
    12:00 +20°C° 0 mm 1 mps 728 mmHg 35%
    13:00 +20°C° 0 mm 2 mps 727 mmHg 36%
    14:00 +20°C° 0 mm 2 mps 727 mmHg 36%
    15:00 +20°C° 0 mm 2 mps 727 mmHg 37%
    16:00 +18°C° 0 mm 2 mps 727 mmHg 44%
    17:00 +16°C° 0 mm 2 mps 726 mmHg 52%
    18:00 +14°C° 0 mm 1 mps 726 mmHg 60%
    19:00 +13°C° 0 mm 1 mps 727 mmHg 61%
    20:00 +13°C° 0 mm 1 mps 727 mmHg 63%
    21:00 +12°C° 0 mm 1 mps 727 mmHg 64%
    22:00 +12°C° 0 mm 1 mps 727 mmHg 65%
    23:00 +12°C° 0 mm 1 mps 727 mmHg 66%

    Day after tomorrow, 24 January, Wednesday

    Time Temperature Precipitation Wind Pressure Humidity
    00:00 +11°C° 0 mm 1 mps 727 mmHg 66%
    01:00 +11°C° 0 mm 1 mps 727 mmHg 67%
    02:00 +11°C° 0 mm 1 mps 726 mmHg 69%
    03:00 +10°C° 0 mm 1 mps 726 mmHg 70%
    04:00 +10°C° 0 mm 1 mps 726 mmHg 70%
    05:00 +10°C° 0 mm 1 mps 726 mmHg 71%
    06:00 +10°C° 0 mm 1 mps 726 mmHg 72%
    07:00 +12°C° 0 mm 1 mps 726 mmHg 63%
    08:00 +14°C° 0 mm 1 mps 727 mmHg 55%
    09:00 +16°C° 0 mm 1 mps 728 mmHg 46%
    10:00 +18°C° 0 mm 1 mps 727 mmHg 42%
    11:00 +20°C° 0 mm 1 mps 727 mmHg 38%
    12:00 +21°C° 0 mm 1 mps 727 mmHg 35%
    13:00 +21°C° 0 mm 1 mps 727 mmHg 34%
    14:00 +20°C° 0 mm 2 mps 726 mmHg 34%
    15:00 +21°C° 0 mm 2 mps 726 mmHg 34%
    16:00 +19°C° 0 mm 2 mps 726 mmHg 41%
    17:00 +17°C° 0 mm 2 mps 726 mmHg 47%
    18:00 +15°C° 0 mm 2 mps 726 mmHg 54%
    19:00 +14°C° 0 mm 1 mps 726 mmHg 57%
    20:00 +13°C° 0 mm 1 mps 726 mmHg 60%
    21:00 +12°C° 0 mm 0 mps 726 mmHg 62%
    22:00 +11°C° 0 mm 0 mps 726 mmHg 63%
    23:00 +11°C° 0 mm 0 mps 726 mmHg 63%

    25 January, Thursday

    Time Temperature Precipitation Wind Pressure Humidity
    00:00 +11°C° 0 mm 0 mps 726 mmHg 63%
    01:00 +10°C° 0 mm 0 mps 725 mmHg 64%
    02:00 +11°C° 0 mm 1 mps 725 mmHg 64%
    03:00 +11°C° 0 mm 1 mps 725 mmHg 65%
    04:00 +11°C° 0 mm 1 mps 725 mmHg 65%
    05:00 +10°C° 0 mm 1 mps 725 mmHg 65%
    06:00 +10°C° 0 mm 1 mps 725 mmHg 65%
    07:00 +12°C° 0 mm 1 mps 725 mmHg 60%
    08:00 +14°C° 0 mm 1 mps 726 mmHg 55%
    09:00 +15°C° 0 mm 2 mps 726 mmHg 49%
    10:00 +16°C° 0 mm 2 mps 726 mmHg 46%
    11:00 +18°C° 0 mm 3 mps 726 mmHg 42%
    12:00 +19°C° 0 mm 3 mps 726 mmHg 38%
    13:00 +19°C° 0 mm 3 mps 725 mmHg 39%
    14:00 +19°C° 0 mm 4 mps 724 mmHg 39%
    15:00 +19°C° 0 mm 4 mps 724 mmHg 40%
    16:00 +17°C° 0 mm 3 mps 724 mmHg 48%
    17:00 +14°C° 0 mm 3 mps 723 mmHg 57%
    18:00 +14°C° 0 mm 2 mps 723 mmHg 66%
    19:00 +13°C° 0 mm 2 mps 723 mmHg 70%
    20:00 +12°C° 0 mm 2 mps 724 mmHg 74%
    21:00 +12°C° 0 mm 2 mps 724 mmHg 77%
    22:00 +12°C° 0 mm 2 mps 724 mmHg 77%
    23:00 +10°C° 0 mm 2 mps 723 mmHg 77%

    26 January, Friday

    Time Temperature Precipitation Wind Pressure Humidity
    00:00 +10°C° 0 mm 2 mps 723 mmHg 77%
    01:00 +10°C° 0 mm 3 mps 723 mmHg 77%
    02:00 +10°C° 0 mm 3 mps 722 mmHg 78%
    03:00 +10°C° 0 mm 3 mps 722 mmHg 78%
    04:00 +10°C° 0.2 mm 4 mps 722 mmHg 78%
    05:00 +10°C° 0.2 mm 4 mps 722 mmHg 78%
    06:00 +9°C° 0.2 mm 5 mps 722 mmHg 77%
    07:00 +9°C° 0.3 mm 6 mps 723 mmHg 78%
    08:00 +9°C° 0.3 mm 7 mps 723 mmHg 78%
    09:00 +9°C° 0.3 mm 8 mps 724 mmHg 78%
    10:00 +9°C° 0.5 mm 8 mps 724 mmHg 74%
    11:00 +7°C° 0.5 mm 9 mps 724 mmHg 70%
    12:00 +7°C° 0.5 mm 9 mps 724 mmHg 66%
    13:00 +7°C° 0.4 mm 9 mps 725 mmHg 64%
    14:00 +7°C° 0.4 mm 9 mps 725 mmHg 63%
    15:00 +7°C° 0.4 mm 8 mps 725 mmHg 62%
    16:00 +6°C° 0.2 mm 7 mps 725 mmHg 64%
    17:00 +5°C° 0.2 mm 6 mps 726 mmHg 66%
    18:00 +6°C° 0.2 mm 4 mps 726 mmHg 69%
    19:00 +5°C° 0.2 mm 4 mps 726 mmHg 70%
    20:00 +5°C° 0.2 mm 5 mps 726 mmHg 72%
    21:00 +5°C° 0.2 mm 5 mps 727 mmHg 73%
    22:00 +5°C° 0.6 mm 5 mps 727 mmHg 75%
    23:00 +5°C° 0.6 mm 5 mps 727 mmHg 76%

    27 January, Saturday

    Time Temperature Precipitation Wind Pressure Humidity
    00:00 +4°C° 0.6 mm 6 mps 726 mmHg 77%
    01:00 +5°C° 0.3 mm 5 mps 726 mmHg 77%
    02:00 +3°C° 0.3 mm 5 mps 726 mmHg 78%
    03:00 +4°C° 0.3 mm 4 mps 726 mmHg 78%
    04:00 +4°C° 0.1 mm 4 mps 726 mmHg 78%
    05:00 +4°C° 0.1 mm 4 mps 726 mmHg 78%
    06:00 +4°C° 0.1 mm 4 mps 726 mmHg 77%
    07:00 +5°C° 0 mm 5 mps 726 mmHg 74%
    08:00 +4°C° 0 mm 6 mps 726 mmHg 71%
    09:00 +5°C° 0 mm 6 mps 726 mmHg 68%
    10:00 +6°C° 0.2 mm 7 mps 726 mmHg 66%
    11:00 +6°C° 0.2 mm 7 mps 726 mmHg 64%
    12:00 +6°C° 0.2 mm 8 mps 726 mmHg 62%
    13:00 +6°C° 0.3 mm 7 mps 726 mmHg 62%
    14:00 +6°C° 0.3 mm 7 mps 725 mmHg 62%
    15:00 +6°C° 0.3 mm 7 mps 725 mmHg 63%
    16:00 +5°C° 0.2 mm 6 mps 725 mmHg 68%
    17:00 +5°C° 0.2 mm 4 mps 725 mmHg 74%
    18:00 +5°C° 0.2 mm 3 mps 725 mmHg 79%
    19:00 +5°C° 0.4 mm 3 mps 725 mmHg 79%
    20:00 +5°C° 0.4 mm 3 mps 725 mmHg 78%
    21:00 +5°C° 0.4 mm 2 mps 725 mmHg 78%
    22:00 +5°C° 0.1 mm 2 mps 725 mmHg 78%
    23:00 +5°C° 0.1 mm 2 mps 725 mmHg 78%
    Show more